Flag for Australia

Past Weather in Sydney, New South Wales, Australia — January 2020

Now
50 °F

Cool.


Feels Like: N/A
Forecast: 58 / 52 °F
Wind: N/A

Location: Sydney Regional Office

Current Time: Jul 13, 2020 at 10:03:21 am

Latest Report: Jul 13, 2020 at 9:00 am


Visibility: N/A

Pressure: 30.09 "Hg

Humidity: 88%

Dew Point: 47 °F

Location of SydneyLocation

January 2020 Weather in Sydney — Graph

°F

High & Low Weather Summary for January 2020

 TemperatureHumidityPressure
High105 °F (Jan 23, 3:00 pm)89% (Jan 17, 12:00 pm)30.22 "Hg (Jan 17, 12:00 pm)
Low64 °F (Jan 13, 4:00 am)14% (Jan 23, 1:00 pm)29.47 "Hg (Jan 23, 3:00 pm)
Average75 °F67%29.89 "Hg
* Reported Jan 1 12:00 am — Jan 31 10:00 pm, Sydney. Weather by CustomWeather, © 2020

Note: Actual official high and low records may vary slightly from our data, if they occured in-between our weather recording intervals... More about our weather records

Sydney Weather History for January 1, 2020

Scroll right to see more
 ConditionsComfort  
Time TempWeatherWind HumidityBarometerVisibility
12:00 am
Wed, Jan 1
68 °FMild.N/A64%29.96 "HgN/A
1:00 am67 °FMild.N/A65%29.93 "HgN/A
3:00 am67 °FMild.N/A67%29.90 "HgN/A
4:00 am67 °FMild.N/A64%29.90 "HgN/A
6:00 am67 °FMild.N/A61%29.92 "HgN/A
7:00 am68 °FMild.N/A62%29.94 "HgN/A
9:00 am70 °FMild.N/A60%29.97 "HgN/A
10:00 am72 °FMild.N/A56%29.97 "HgN/A
12:00 pm76 °FMild.N/A52%29.95 "HgN/A
1:00 pm78 °FWarm.N/A50%29.93 "HgN/A
3:00 pm76 °FMild.N/A54%29.92 "HgN/A
4:00 pm75 °FMild.N/A59%29.92 "HgN/A
6:00 pm74 °FMild.N/A64%29.95 "HgN/A
7:00 pm73 °FMild.N/A67%29.98 "HgN/A
9:00 pm72 °FMild.N/A72%30.04 "HgN/A
10:00 pm72 °FMild.N/A71%30.06 "HgN/A
Weather by CustomWeather, © 2020

See weather overview